Location: Gudip?du
(17.0263°N, 80.8301°E)
Time: 16:20:35
(UTC+00:00)

Cosmos 1544 Rocket - Pass Details

Date: 03 August 2024
Orbit: 601 x 626 km, 82.5° (Epoch: 12 September)

Event Time Altitude Azimuth Distance (km) Brightness Sun altitude
Rises 14:33:23 0° 347° (NNW) 2,847 7.5 -19.7°
Reaches altitude 10° 14:35:38 10° 342° (NNW) 1,945 6.7 -20.2°
Maximum altitude 14:39:48 50° 267° (W) 774 4.3 -21.0°
Enters shadow 14:43:19 14° 195° (SSW) 1,698 5.7 -21.8°
